EW6055 Weather Reports


Display with metric or nautical units.
time (UTC)temp
F
wind
direction
speed
MPH
gust
MPH
rain 1hr
in
rain 24hr
in
rain mn
in
humidity
%
barometer
mb
20260509084003 54 0 0.0 0.0 0.00 0.00 0.00 80 1020.0
20260509083503 54 325 0.0 4.0 0.00 0.00 0.00 80 1020.0
20260509083003 54 333 1.0 5.0 0.00 0.00 0.00 80 1020.2
20260509082504 54 334 1.0 5.0 0.00 0.00 0.00 80 1020.2
20260509082003 55 333 1.0 4.0 0.00 0.00 0.00 80 1020.3
20260509081503 55 336 0.0 4.0 0.00 0.00 0.00 80 1020.3
20260509081004 55 0 0.0 0.0 0.00 0.00 0.00 79 1020.4
20260509080503 55 335 0.0 2.0 0.00 0.00 0.00 79 1020.4
20260509080024 55 316 0.0 5.0 0.00 0.00 0.00 79 1020.4
20260509075503 55 323 1.0 5.0 0.00 0.00 0.00 78 1020.4
20260509075004 56 328 0.0 3.0 0.00 0.00 0.00 78 1020.4
20260509074503 56 332 0.0 4.0 0.00 0.00 0.00 78 1020.4
20260509074003 56 332 0.0 4.0 0.00 0.00 0.00 78 1020.5
20260509073503 56 332 0.0 1.0 0.00 0.00 0.00 77 1020.4
20260509073003 56 328 1.0 5.0 0.00 0.00 0.00 77 1020.4
20260509072503 56 328 1.0 5.0 0.00 0.00 0.00 76 1020.4
20260509072003 56 0 0.0 0.0 0.00 0.00 0.00 76 1020.4
20260509071503 56 0 0.0 0.0 0.00 0.00 0.00 76 1020.5
20260509071003 57 0 0.0 0.0 0.00 0.00 0.00 75 1020.4
20260509070503 57 0 0.0 0.0 0.00 0.00 0.00 75 1020.4
20260509070004 57 348 0.0 2.0 0.00 0.00 0.00 75 1020.4
20260509065503 57 336 1.0 6.0 0.00 0.00 0.00 74 1020.5
20260509065003 57 328 1.0 6.0 0.00 0.00 0.00 74 1020.5
20260509064503 57 332 1.0 5.0 0.00 0.00 0.00 73 1020.4
20260509064003 58 332 1.0 5.0 0.00 0.00 0.00 73 1020.4
20260509063503 58 331 1.0 3.0 0.00 0.00 0.00 73 1020.4
20260509063024 58 343 1.0 3.0 0.00 0.00 0.00 72 1020.4
20260509062503 58 344 1.0 3.0 0.00 0.00 0.00 72 1020.4
20260509062003 58 338 0.0 3.0 0.00 0.00 0.00 72 1020.3
20260509061504 59 343 1.0 4.0 0.00 0.00 0.00 71 1020.3
20260509061003 59 336 1.0 4.0 0.00 0.00 0.00 71 1020.2
20260509060503 59 335 1.0 5.0 0.00 0.00 0.00 71 1020.3
20260509060003 59 338 1.0 5.0 0.00 0.00 0.00 70 1020.3
20260509055524 59 333 1.0 3.0 0.00 0.00 0.00 70 1020.3
20260509055003 60 335 1.0 6.0 0.00 0.00 0.00 70 1020.3
20260509054503 60 339 2.0 6.0 0.00 0.00 0.00 69 1020.3
20260509054024 60 344 1.0 4.0 0.00 0.00 0.00 69 1020.2
20260509053503 60 339 2.0 5.0 0.00 0.00 0.00 68 1020.2
20260509053024 60 335 2.0 5.0 0.00 0.00 0.00 68 1020.1
20260509052503 60 334 1.0 5.0 0.00 0.00 0.00 68 1020.1
20260509052003 60 334 2.0 5.0 0.00 0.00 0.00 67 1020.1
20260509051503 61 337 1.0 4.0 0.00 0.00 0.00 67 1020.1
20260509051003 61 334 1.0 3.0 0.00 0.00 0.00 66 1020.1
20260509050503 61 322 1.0 4.0 0.00 0.00 0.00 65 1020.0
20260509050003 61 317 1.0 4.0 0.00 0.00 0.00 65 1020.0
20260509045503 62 313 1.0 4.0 0.00 0.00 0.00 64 1019.9
20260509045003 62 0 0.0 0.0 0.00 0.00 0.00 63 1020.0
20260509044503 62 314 0.0 2.0 0.00 0.00 0.00 63 1019.9
20260509044003 62 324 0.0 3.0 0.00 0.00 0.00 62 1019.9
20260509043503 63 332 0.0 3.0 0.00 0.00 0.00 61 1019.8
20260509043024 63 344 0.0 2.0 0.00 0.00 0.00 61 1019.7
20260509042503 63 307 0.0 3.0 0.00 0.00 0.00 60 1019.7
20260509042004 63 297 0.0 3.0 0.00 0.00 0.00 60 1019.7
20260509041503 64 261 0.0 1.0 0.00 0.00 0.00 59 1019.7
20260509041003 64 0 0.0 0.0 0.00 0.00 0.00 59 1019.7
20260509040524 64 0 0.0 0.0 0.00 0.00 0.00 58 1019.6
20260509040003 64 0 0.0 0.0 0.00 0.00 0.00 58 1019.6
20260509035503 64 0 0.0 0.0 0.00 0.00 0.00 58 1019.6
20260509035024 64 0 0.0 0.0 0.00 0.00 0.00 58 1019.5
20260509034524 64 236 0.0 2.0 0.00 0.00 0.00 58 1019.4
20260509034024 64 266 1.0 4.0 0.00 0.00 0.00 58 1019.4
20260509033505 64 267 1.0 4.0 0.00 0.00 0.00 59 1019.3
20260509033003 64 191 0.0 2.0 0.00 0.00 0.00 58 1019.2
20260509032503 65 200 0.0 2.0 0.00 0.00 0.00 57 1019.2
20260509032003 65 207 0.0 2.0 0.00 0.00 0.00 57 1019.1
20260509031503 65 201 0.0 2.0 0.00 0.00 0.00 57 1019.0
20260509031003 65 185 0.0 1.0 0.00 0.00 0.00 57 1019.0
20260509030503 65 158 0.0 1.0 0.00 0.00 0.00 56 1019.0
20260509030003 65 0 0.0 0.0 0.00 0.00 0.00 56 1019.0
20260509025503 66 0 0.0 0.0 0.00 0.00 0.00 56 1019.0
20260509025003 66 0 0.0 0.0 0.00 0.00 0.00 55 1018.9
20260509024503 66 0 0.0 0.0 0.00 0.00 0.00 55 1018.9
20260509024003 66 0 0.0 0.0 0.00 0.00 0.00 54 1018.9
20260509023503 66 0 0.0 0.0 0.00 0.00 0.00 54 1018.9
20260509023003 66 214 0.0 1.0 0.00 0.00 0.00 54 1018.8
20260509022503 67 191 0.0 1.0 0.00 0.00 0.00 53 1018.8
20260509022003 67 185 0.0 2.0 0.00 0.00 0.00 53 1018.9
20260509021503 67 187 1.0 2.0 0.00 0.00 0.00 53 1018.9
20260509021003 67 188 1.0 2.0 0.00 0.00 0.00 52 1018.9
20260509020503 68 156 1.0 3.0 0.00 0.00 0.00 52 1018.9
20260509020003 68 139 1.0 3.0 0.00 0.00 0.00 52 1018.9
20260509015524 68 137 0.0 2.0 0.00 0.00 0.00 51 1018.9
20260509015003 68 179 0.0 2.0 0.00 0.00 0.00 51 1018.9
20260509014503 68 177 1.0 2.0 0.00 0.00 0.00 51 1018.9
20260509014003 68 178 1.0 2.0 0.00 0.00 0.00 50 1018.9
20260509013524 68 218 1.0 4.0 0.00 0.00 0.00 50 1019.0
20260509013003 69 245 1.0 4.0 0.00 0.00 0.00 50 1019.0
20260509012503 68 152 1.0 3.0 0.00 0.00 0.00 50 1019.1
20260509012003 68 116 1.0 3.0 0.00 0.00 0.00 50 1019.1
20260509011524 69 202 0.0 2.0 0.00 0.00 0.00 49 1019.2
20260509011004 69 206 1.0 2.0 0.00 0.00 0.00 49 1019.2
20260509010503 69 192 1.0 2.0 0.00 0.00 0.00 48 1019.2
20260509010003 69 163 1.0 2.0 0.00 0.00 0.00 49 1019.2
20260509005503 69 174 1.0 2.0 0.00 0.00 0.00 48 1019.3
20260509005003 70 195 1.0 3.0 0.00 0.00 0.00 48 1019.3
20260509004524 70 192 0.0 3.0 0.00 0.00 0.00 48 1019.3
20260509004003 69 202 0.0 2.0 0.00 0.00 0.00 48 1019.3
20260509003503 69 188 1.0 2.0 0.00 0.00 0.00 49 1019.3
20260509003003 69 174 1.0 2.0 0.00 0.00 0.00 49 1019.3
20260509002524 69 176 1.0 4.0 0.00 0.00 0.00 49 1019.4
20260509002003 69 195 1.0 4.0 0.00 0.00 0.00 48 1019.4
20260509001503 69 219 1.0 2.0 0.00 0.00 0.00 49 1019.4
20260509001003 69 132 1.0 2.0 0.00 0.00 0.00 48 1019.4
20260509000503 69 130 1.0 2.0 0.00 0.00 0.00 48 1019.4
20260509000004 70 213 1.0 7.0 0.00 0.00 0.00 48 1019.5
20260508235503 70 234 1.0 7.0 0.00 0.00 0.00 48 1019.5
20260508235024 70 198 1.0 4.0 0.00 0.00 0.00 47 1019.5
20260508234503 69 204 1.0 4.0 0.00 0.00 0.00 48 1019.5
20260508234024 69 187 1.0 4.0 0.00 0.00 0.00 48 1019.6
20260508233503 69 144 0.0 3.0 0.00 0.00 0.00 47 1019.6
20260508233024 69 178 1.0 3.0 0.00 0.00 0.00 48 1019.5
20260508232504 70 218 1.0 4.0 0.00 0.00 0.00 46 1019.6
20260508232003 70 229 1.0 4.0 0.00 0.00 0.00 46 1019.6
20260508231524 70 216 1.0 3.0 0.00 0.00 0.00 47 1019.6
20260508231003 70 123 0.0 2.0 0.00 0.00 0.00 47 1019.5
20260508230503 70 174 0.0 1.0 0.00 0.00 0.00 47 1019.5
20260508230004 70 176 1.0 2.0 0.00 0.00 0.00 46 1019.5
20260508225503 69 244 0.0 3.0 0.00 0.00 0.00 46 1019.6
20260508225003 69 273 1.0 4.0 0.00 0.00 0.00 46 1019.6
20260508224503 69 266 1.0 4.0 0.00 0.00 0.00 47 1019.6
20260508224003 68 249 1.0 4.0 0.00 0.00 0.00 47 1019.6
20260508223503 68 218 1.0 4.0 0.00 0.00 0.00 48 1019.6
20260508223003 68 202 1.0 5.0 0.00 0.00 0.00 48 1019.7
20260508222503 68 189 1.0 5.0 0.00 0.00 0.00 47 1019.8
20260508222004 69 200 1.0 4.0 0.00 0.00 0.00 46 1019.8
20260508221503 70 218 1.0 2.0 0.00 0.00 0.00 46 1019.9
20260508221024 69 235 1.0 2.0 0.00 0.00 0.00 47 1019.9
20260508220503 69 271 1.0 2.0 0.00 0.00 0.00 47 1019.9
20260508220003 68 250 1.0 5.0 0.00 0.00 0.00 47 1019.9
20260508215503 68 182 1.0 5.0 0.00 0.00 0.00 47 1019.9
20260508215003 68 134 1.0 4.0 0.00 0.00 0.00 47 1019.9
20260508214503 68 152 1.0 2.0 0.00 0.00 0.00 48 1019.8
20260508214024 67 205 1.0 2.0 0.00 0.00 0.00 48 1019.9
20260508213503 67 228 1.0 3.0 0.00 0.00 0.00 49 1019.8
20260508213024 67 213 1.0 3.0 0.00 0.00 0.00 49 1019.8
20260508212503 67 217 1.0 2.0 0.00 0.00 0.00 48 1019.9
20260508212024 67 232 1.0 5.0 0.00 0.00 0.00 48 1019.9
20260508211524 67 229 1.0 5.0 0.00 0.00 0.00 49 1020.0
20260508211003 67 221 1.0 6.0 0.00 0.00 0.00 50 1019.9
20260508210524 66 188 1.0 6.0 0.00 0.00 0.00 50 1019.9
20260508210003 66 205 1.0 5.0 0.00 0.00 0.00 50 1019.9
20260508205524 66 203 1.0 4.0 0.00 0.00 0.00 50 1020.0
20260508205003 66 155 1.0 3.0 0.00 0.00 0.00 50 1020.0
20260508204503 65 137 1.0 2.0 0.00 0.00 0.00 51 1019.9
20260508204003 64 166 1.0 3.0 0.00 0.00 0.00 52 1019.9
20260508203504 65 196 1.0 3.0 0.00 0.00 0.00 51 1020.1
20260508203003 65 194 1.0 2.0 0.00 0.00 0.00 51 1020.1
20260508202503 65 185 1.0 3.0 0.00 0.00 0.00 50 1020.1
20260508202024 64 181 1.0 3.0 0.00 0.00 0.00 51 1020.1
20260508201503 64 165 1.0 6.0 0.00 0.00 0.00 52 1020.1
20260508201003 64 198 1.0 6.0 0.00 0.00 0.00 52 1020.1
20260508200503 63 250 1.0 5.0 0.00 0.00 0.00 54 1020.2
20260508200003 63 253 1.0 4.0 0.00 0.00 0.00 53 1020.3
20260508195503 62 218 1.0 3.0 0.00 0.00 0.00 55 1020.3
20260508195003 62 181 1.0 7.0 0.00 0.00 0.00 55 1020.3
20260508194524 62 173 1.0 7.0 0.00 0.00 0.00 55 1020.3
20260508194003 62 154 1.0 4.0 0.00 0.00 0.00 54 1020.3
20260508193503 62 169 1.0 3.0 0.00 0.00 0.00 55 1020.3
20260508193024 62 191 1.0 3.0 0.00 0.00 0.00 53 1020.3
20260508192503 62 206 1.0 7.0 0.00 0.00 0.00 53 1020.2
20260508192003 63 176 1.0 7.0 0.00 0.00 0.00 53 1020.3
20260508191503 62 162 1.0 3.0 0.00 0.00 0.00 54 1020.3
20260508191003 62 180 1.0 3.0 0.00 0.00 0.00 55 1020.4
20260508190504 62 145 1.0 4.0 0.00 0.00 0.00 57 1020.4
20260508190004 62 127 1.0 4.0 0.00 0.00 0.00 56 1020.4
20260508185524 62 166 1.0 3.0 0.00 0.00 0.00 56 1020.5
20260508185003 62 172 1.0 3.0 0.00 0.00 0.00 57 1020.4
20260508184503 61 141 1.0 4.0 0.00 0.00 0.00 58 1020.5
20260508184003 60 119 1.0 5.0 0.00 0.00 0.00 59 1020.4
20260508183503 60 116 1.0 5.0 0.00 0.00 0.00 58 1020.4
20260508183003 60 154 1.0 3.0 0.00 0.00 0.00 56 1020.4
20260508182504 60 186 1.0 6.0 0.00 0.00 0.00 57 1020.4
20260508182004 60 188 1.0 6.0 0.00 0.00 0.00 58 1020.4
20260508181503 60 185 1.0 13.0 0.00 0.00 0.00 60 1020.3
20260508181003 60 173 1.0 13.0 0.00 0.00 0.00 59 1020.3
20260508180503 59 173 1.0 4.0 0.00 0.00 0.00 60 1020.2
20260508180024 58 188 1.0 5.0 0.00 0.00 0.00 60 1020.3
20260508175524 59 193 1.0 5.0 0.00 0.00 0.00 60 1020.2
20260508175003 59 194 1.0 3.0 0.00 0.00 0.00 63 1020.1
20260508174503 58 199 1.0 3.0 0.00 0.00 0.00 64 1020.1
20260508174003 58 220 1.0 3.0 0.00 0.00 0.00 67 1020.0
20260508173503 57 237 1.0 4.0 0.00 0.00 0.00 67 1020.1
20260508173003 57 216 1.0 4.0 0.00 0.00 0.00 68 1020.0
20260508172503 56 207 1.0 4.0 0.00 0.00 0.00 69 1019.9
20260508172024 56 227 1.0 6.0 0.00 0.00 0.00 69 1019.9
20260508171524 56 247 1.0 6.0 0.00 0.00 0.00 69 1019.8
20260508171003 56 258 1.0 3.0 0.00 0.00 0.00 70 1019.7
20260508170503 55 254 1.0 4.0 0.00 0.00 0.00 72 1019.6
20260508170003 55 237 1.0 4.0 0.00 0.00 0.00 73 1019.5
20260508165503 54 199 1.0 3.0 0.00 0.00 0.00 74 1019.5
20260508165004 54 188 1.0 6.0 0.00 0.00 0.00 72 1019.5
20260508164503 54 189 1.0 6.0 0.00 0.00 0.00 72 1019.2
20260508164003 54 202 1.0 2.0 0.00 0.00 0.00 73 1019.1
20260508163503 54 213 1.0 3.0 0.00 0.00 0.00 72 1019.2
20260508163003 54 209 1.0 3.0 0.00 0.00 0.00 72 1019.2
20260508162503 54 204 1.0 3.0 0.00 0.00 0.00 73 1019.1
20260508162024 54 208 1.0 3.0 0.00 0.00 0.00 73 1019.3
20260508161524 54 207 1.0 3.0 0.00 0.00 0.00 73 1019.2
20260508161003 54 182 1.0 3.0 0.00 0.00 0.00 74 1018.9
20260508160503 54 172 1.0 3.0 0.00 0.00 0.00 74 1019.0
20260508160003 54 158 1.0 3.0 0.00 0.00 0.00 76 1018.9
20260508155504 53 163 1.0 5.0 0.00 0.00 0.00 76 1019.0
20260508155003 53 175 1.0 5.0 0.00 0.00 0.00 77 1019.0
20260508154503 52 157 1.0 3.0 0.00 0.00 0.00 77 1019.1
20260508154024 52 135 1.0 2.0 0.00 0.00 0.00 78 1019.0
20260508153524 52 118 1.0 3.0 0.00 0.00 0.00 79 1018.9
20260508153003 52 129 1.0 3.0 0.00 0.00 0.00 79 1018.9
20260508152504 52 156 1.0 3.0 0.00 0.00 0.00 79 1019.0
20260508152004 52 168 1.0 2.0 0.00 0.00 0.00 80 1019.0
20260508151524 51 156 1.0 2.0 0.00 0.00 0.00 81 1019.1
20260508151024 51 150 1.0 2.0 0.00 0.00 0.00 81 1019.2
20260508150504 51 123 1.0 3.0 0.00 0.00 0.00 81 1019.1
20260508150004 51 119 1.0 3.0 0.00 0.00 0.00 81 1019.2
20260508145503 50 131 1.0 3.0 0.00 0.00 0.00 81 1019.3
20260508145003 50 173 1.0 3.0 0.00 0.00 0.00 81 1019.2
20260508144524 50 169 1.0 3.0 0.00 0.00 0.00 82 1019.3
20260508144003 50 154 1.0 3.0 0.00 0.00 0.00 83 1019.3
20260508143503 49 171 1.0 6.0 0.00 0.00 0.00 84 1019.3
20260508143024 49 165 1.0 6.0 0.00 0.00 0.00 84 1019.2
20260508142503 49 168 1.0 5.0 0.00 0.00 0.00 85 1019.2
20260508142006 49 172 1.0 5.0 0.00 0.00 0.00 85 1019.1
20260508141504 48 164 1.0 4.0 0.00 0.00 0.00 85 1019.0
20260508141003 48 164 1.0 3.0 0.00 0.00 0.00 86 1018.8
20260508140503 48 156 1.0 3.0 0.00 0.00 0.00 86 1018.8
20260508140004 48 157 1.0 3.0 0.00 0.00 0.00 86 1018.6
20260508135524 48 175 1.0 3.0 0.00 0.00 0.00 86 1018.6
20260508135003 48 168 1.0 2.0 0.00 0.00 0.00 85 1018.4
20260508134504 48 169 1.0 3.0 0.00 0.00 0.00 86 1018.3
20260508134003 48 189 1.0 3.0 0.00 0.00 0.00 85 1018.2
20260508133503 48 187 1.0 2.0 0.00 0.00 0.00 85 1018.1
20260508133003 48 173 1.0 2.0 0.00 0.00 0.00 85 1017.9
20260508132503 48 178 1.0 2.0 0.00 0.00 0.00 84 1017.8
20260508132003 48 188 1.0 3.0 0.00 0.00 0.00 84 1017.8
20260508131503 48 188 1.0 3.0 0.00 0.00 0.00 84 1017.6
20260508131024 48 186 1.0 3.0 0.00 0.00 0.00 83 1017.5
20260508130504 48 192 1.0 3.0 0.00 0.00 0.00 83 1017.5
20260508130003 49 185 1.0 3.0 0.00 0.00 0.00 82 1017.3
20260508125503 49 175 0.0 2.0 0.00 0.00 0.00 82 1017.1
20260508125003 49 182 0.0 2.0 0.00 0.00 0.00 81 1017.1
20260508124503 49 190 1.0 2.0 0.00 0.00 0.00 81 1017.1
20260508124003 49 170 1.0 3.0 0.00 0.00 0.00 81 1017.0
20260508123503 49 160 1.0 3.0 0.00 0.00 0.00 81 1016.9
20260508123003 49 169 1.0 2.0 0.00 0.00 0.00 80 1016.9
20260508122503 49 156 1.0 2.0 0.00 0.00 0.00 80 1016.8
20260508122003 49 149 1.0 2.0 0.00 0.00 0.00 80 1016.9
20260508121503 49 160 1.0 2.0 0.00 0.00 0.00 80 1016.8
20260508121004 49 182 1.0 2.0 0.00 0.00 0.00 80 1016.9
20260508120524 49 186 1.0 2.0 0.00 0.00 0.00 80 1016.8
20260508120003 49 192 1.0 2.0 0.00 0.00 0.00 80 1016.7
20260508115503 50 198 1.0 2.0 0.00 0.00 0.00 80 1016.9
20260508114503 50 133 0.0 4.0 0.00 0.00 0.00 79 1016.6
20260508114024 50 141 1.0 4.0 0.00 0.00 0.00 79 1016.5
20260508113503 50 160 0.0 2.0 0.00 0.00 0.00 79 1016.4
20260508113025 50 0 0.0 0.0 0.00 0.00 0.00 79 1016.4
20260508112503 50 165 0.0 2.0 0.00 0.00 0.00 80 1016.4
20260508112024 50 173 0.0 3.0 0.00 0.00 0.00 79 1016.3
20260508111503 50 167 1.0 3.0 0.00 0.00 0.00 80 1016.2
20260508111024 50 144 1.0 3.0 0.00 0.00 0.00 79 1016.2
20260508110503 50 143 1.0 2.0 0.00 0.00 0.00 79 1016.1
20260508110003 50 150 1.0 2.0 0.00 0.00 0.00 79 1016.0
20260508105504 51 144 1.0 6.0 0.00 0.00 0.00 80 1016.0
20260508105003 51 130 1.0 6.0 0.00 0.00 0.00 79 1016.0
20260508104503 51 130 1.0 3.0 0.00 0.00 0.00 79 1015.9
20260508104024 51 152 1.0 2.0 0.00 0.00 0.00 79 1015.9
20260508103504 51 159 1.0 2.0 0.00 0.00 0.00 79 1015.8
20260508103003 51 160 1.0 2.0 0.00 0.00 0.00 78 1015.8
20260508102503 51 176 1.0 2.0 0.00 0.00 0.00 78 1015.8
20260508102003 51 177 0.0 2.0 0.00 0.00 0.00 78 1015.7
20260508101503 51 173 0.0 2.0 0.00 0.00 0.00 78 1015.7
20260508101003 51 187 0.0 1.0 0.00 0.00 0.00 79 1015.7
20260508100503 51 0 0.0 0.0 0.00 0.00 0.00 79 1015.6
20260508100004 52 128 0.0 2.0 0.00 0.00 0.00 80 1015.6
20260508095503 52 128 1.0 2.0 0.00 0.00 0.00 80 1015.6
20260508095024 52 127 1.0 2.0 0.00 0.00 0.00 80 1015.5
20260508094503 52 131 0.0 1.0 0.00 0.00 0.00 80 1015.4
20260508094003 52 147 0.0 1.0 0.00 0.00 0.00 80 1015.4
20260508093503 52 0 0.0 0.0 0.00 0.00 0.00 79 1015.4
20260508093024 52 0 0.0 0.0 0.00 0.00 0.00 79 1015.4
20260508092503 52 0 0.0 0.0 0.00 0.00 0.00 79 1015.4
20260508092003 52 0 0.0 0.0 0.00 0.00 0.00 79 1015.4
20260508091503 52 0 0.0 0.0 0.00 0.00 0.00 78 1015.3
20260508091003 52 0 0.0 0.0 0.00 0.00 0.00 78 1015.2
20260508090504 53 197 0.0 1.0 0.00 0.00 0.00 78 1015.2
20260508090004 53 196 0.0 1.0 0.00 0.00 0.00 77 1015.2
20260508085503 53 196 0.0 1.0 0.00 0.00 0.00 77 1015.2
20260508085003 53 191 0.0 2.0 0.00 0.00 0.00 77 1015.1
20260508084504 53 192 0.0 2.0 0.00 0.00 0.00 77 1015.1